Home   Weather   Bradenton   Past weeks

Flag for USA Past Weather in Bradenton, Florida, USA — Yesterday and Last 2 Weeks

Now
89 °F

Sunny.


Feels Like: 97 °F
Forecast: 78 / 90 °F
Wind: No wind

Location: Sarasota-Bradenton International Airport

Current Time: Aug 17, 2017 at 11:42:03 am

Latest Report: Aug 17, 2017 at 10:53 am


Visibility: 10 mi

Pressure: 30.08 "Hg

Humidity: 59%

Dew Point: 73 °F

Location of BradentonLocation

Past Weather in Bradenton — Graph

°F

Bradenton Temperature Yesterday

Maximum temperature yesterday: 91 °F (at 12:53 pm)
Minimum temperature yesterday: 79 °F (at 3:53 am)
Average temperature yesterday: 85 °F

High & Low Weather Summary for the Past Weeks

 TemperatureHumidityPressure
High93 °F (Aug 7, 1:53 pm)96% (Aug 3, 3:53 am)30.16 "Hg (Aug 3, 3:53 am)
Low75 °F (Aug 3, 3:53 am)50% (Aug 7, 1:53 pm)29.93 "Hg (Aug 14, 4:53 am)
Average83 °F76%30.03 "Hg
* Reported Aug 2 9:53 am — Aug 17 9:53 am, Bradenton. Weather by CustomWeather, © 2017

Note: Actual official high and low records may vary slightly from our data, if they occured in-between our weather recording intervals... More about our weather records

Advertising

Bradenton Weather History for the Previous 24 Hours

Scroll right to see more
 ConditionsComfort  
Time TempWeatherWind HumidityBarometerVisibility
9:53 am
Thu, Aug 17
87 °FSunny.3 mph67%30.08 "Hg10 mi
8:53 am83 °FSunny.3 mph79%30.07 "Hg10 mi
7:53 am80 °FSunny.No wind87%30.07 "Hg10 mi
6:53 am78 °FClear.5 mph90%30.06 "Hg10 mi
5:53 am78 °FPassing clouds.No wind90%30.05 "Hg10 mi
4:53 am78 °FClear.5 mph90%30.03 "Hg10 mi
3:53 am79 °FClear.3 mph88%30.03 "Hg10 mi
2:53 am79 °FClear.3 mph88%30.05 "Hg10 mi
1:53 am79 °FClear.5 mph84%30.05 "Hg10 mi
12:53 am80 °FClear.3 mph85%30.06 "Hg10 mi
11:53 pm
Wed, Aug 16
80 °FClear.6 mph87%30.06 "Hg10 mi
10:53 pm81 °FPassing clouds.6 mph85%30.07 "Hg10 mi
9:53 pm82 °FClear.5 mph85%30.05 "Hg10 mi
8:53 pm83 °FClear.No wind77%30.03 "Hg10 mi
7:53 pm87 °FSunny.3 mph67%30.03 "Hg10 mi
7:40 pm88 °FSunny.5 mph65%30.04 "Hg10 mi
7:23 pm89 °FThundershowers. Sunny.No wind61%30.04 "Hg10 mi
6:53 pm88 °FSunny.5 mph63%30.03 "Hg10 mi
5:53 pm90 °FPassing clouds.7 mph59%30.03 "Hg10 mi
4:53 pm88 °FSunny.7 mph63%30.02 "Hg10 mi
3:53 pm86 °FLight rain. Mostly cloudy.7 mph75%30.03 "Hg10 mi
3:22 pm81 °FLight rain. Broken clouds.9 mph72%30.06 "Hg10 mi
3:03 pm81 °FThunderstorms. Cloudy.17 mph74%30.06 "Hg10 mi
2:37 pm88 °FThunderstorms. Mostly cloudy.8 mph67%30.06 "Hg10 mi
1:53 pm91 °FSunny.10 mph61%30.06 "Hg10 mi
12:53 pm91 °FSunny.10 mph57%30.09 "Hg10 mi
11:53 am89 °FPartly sunny.7 mph65%30.09 "Hg10 mi
Weather by CustomWeather, © 2017

See weather overviewHow to use our weather pages